FW3737 Weather Reports


time (UTC)temp
C
wind
direction
speed
KPH
gust
KPH
rain 1hr
cm
rain 24hr
cm
rain mn
cm
humidity
%
barometer
mb
20260505053012 -17 0.0 0.0 0.00 0.00 0.00 1001.8
20260505051512 -17 0.0 0.0 0.00 0.00 0.00 1001.7
20260505041557 -17 0.0 0.0 0.00 0.00 0.00 1002.7
20260505040053 -17 0.0 0.0 0.00 0.00 0.00 1002.9
20260505034651 22 345 0.0 0.0 0.00 0.00 0.00 58 1002.8
20260505033049 23 344 0.0 0.0 0.00 0.00 0.00 58 1002.8
20260505031547 23 345 0.0 0.0 0.00 0.00 0.00 57 1002.7
20260505030048 23 345 0.0 0.0 0.00 0.00 0.00 57 1002.5
20260505024648 23 345 0.0 0.0 0.00 0.00 0.00 56 1002.3
20260505023045 24 345 0.0 0.0 0.00 0.00 0.00 55 1002.0
20260505021542 24 345 0.0 0.0 0.00 0.00 0.00 55 1001.8
20260505020040 25 345 0.0 0.0 0.00 0.00 0.00 54 1001.6
20260505014541 25 344 0.0 0.0 0.00 0.00 0.00 54 1001.2
20260505013040 25 344 0.0 0.0 0.00 0.00 0.00 53 1000.8
20260505011639 26 345 0.0 0.0 0.00 0.00 0.00 52 1000.8
20260505010043 26 345 0.0 0.0 0.00 0.00 0.00 52 1000.7
20260505004541 26 344 0.0 0.0 0.00 0.00 0.00 52 1000.6
20260505003039 26 344 0.0 0.0 0.00 0.00 0.00 52 1000.6
20260505001637 25 0.0 9.7 0.00 0.00 0.00 62 1000.6
20260505000037 25 1.6 9.7 0.00 0.00 0.00 61 1000.6
20260504234536 25 1.6 17.7 0.00 0.00 0.00 62 1000.6
20260504233041 26 8.0 20.9 0.00 0.00 0.00 60 1000.7
20260504231635 25 1.6 17.7 0.00 0.00 0.00 61 1000.7
20260504230036 25 3.2 17.7 0.00 0.00 0.00 59 1000.6
20260504224534 26 16.1 30.6 0.00 0.00 0.00 59 1000.5
20260504223034 26 12.9 27.4 0.00 0.00 0.00 57 1000.5
20260504221633 26 8.0 30.6 0.00 0.00 0.00 60 1000.7
20260504220035 26 17.7 32.2 0.00 0.00 0.00 58 1000.6
20260504214544 26 16.1 33.8 0.00 0.00 0.00 57 1000.7
20260504213036 26 3.2 27.4 0.00 0.00 0.00 60 1000.7
20260504211630 26 22.5 35.4 0.00 0.00 0.00 58 1000.8
20260504210029 26 29.0 40.2 0.00 0.00 0.00 56 1000.8
20260504204528 26 14.5 35.4 0.00 0.00 0.00 58 1000.9
20260504203025 26 25.7 41.8 0.00 0.00 0.00 59 1001.2
20260504201623 25 27.4 38.6 0.00 0.00 0.00 57 1001.4
20260504200035 25 20.9 38.6 0.00 0.00 0.00 58 1001.4
20260504194522 25 14.5 33.8 0.00 0.00 0.00 60 1001.6
20260504193021 24 12.9 43.5 0.00 0.00 0.00 61 1001.8
20260504191619 25 14.5 33.8 0.00 0.00 0.00 60 1001.7
20260504190019 25 22.5 41.8 0.00 0.00 0.00 58 1001.9
20260504184517 25 12.9 35.4 0.00 0.00 0.00 60 1001.8
20260504183032 25 17.7 37.0 0.00 0.00 0.00 59 1002.0
20260504181615 25 16.1 37.0 0.00 0.00 0.00 60 1002.1
20260504180017 25 17.7 29.0 0.00 0.00 0.00 58 1002.1
20260504174515 24 20.9 35.4 0.00 0.00 0.00 58 1002.3
20260504173009 23 14.5 40.2 0.00 0.00 0.00 62 1002.4
20260504171606 23 9.7 27.4 0.00 0.00 0.00 61 1002.6
20260504081510 -17 0.0 0.0 0.00 0.00 0.00 1005.9